Location: Unspecified
(0.0000°N, 0.0000°E)
Time: 05:02:00
(UTC+00:00)

Vanguard 1 Rocket - All Passes

Search period start: 04 July 2015 00:00
Search period end: 14 July 2015 00:00
Orbit: 654 x 4224 km, 34.3° (Epoch: 01 July)

Date Brightness Start Highest point End Pass type
(mag) Time Alt. Az. Time Alt. Az. Time Alt. Az.
04 Jul - 00:43:11 10° SSW 01:01:24 37° SSE 01:24:55 10° E visible
04 Jul - 03:11:16 10° SW 03:36:52 82° SE 03:59:27 10° NE visible
04 Jul - 05:46:02 10° WSW 06:10:21 45° NW 06:26:10 10° NNE daylight
04 Jul - 08:35:36 10° NW 08:42:55 13° NNW 08:47:39 10° N daylight
04 Jul - 13:44:49 10° NNE 13:45:09 10° NNE 13:45:41 10° NNE daylight
04 Jul - 16:06:09 10° WNW 16:10:29 64° SW 16:15:59 10° SE daylight
04 Jul - 18:35:28 10° SSW 18:37:44 11° SSW 18:40:05 10° S visible
04 Jul - 23:32:00 10° SSW 23:45:27 25° SSE 00:05:11 10° ESE visible
05 Jul - 01:58:13 10° SW 02:21:00 62° SE 02:45:37 10° ENE visible
05 Jul - 04:29:14 10° WSW 04:55:28 64° NW 05:15:01 10° NE visible
05 Jul - 07:11:23 10° W 07:28:34 24° NNW 07:39:21 10° NNE daylight
05 Jul - 14:55:37 10° NW 15:00:00 45° NE 15:04:28 10° ESE daylight
05 Jul - 17:22:10 10° WSW 17:25:34 17° SSW 17:29:43 10° SSE daylight
05 Jul - 22:21:47 10° S 22:29:53 16° SSE 22:42:02 10° ESE night (unlit)
06 Jul - 00:46:13 10° SSW 01:05:09 45° SE 01:29:44 10° ENE visible
06 Jul - 03:14:30 10° SW 03:39:59 86° NW 04:02:50 10° NE visible
06 Jul - 05:50:45 10° W 06:13:52 37° NW 06:29:12 10° NNE daylight
06 Jul - 08:44:15 10° NNW 08:47:32 10° NNW 08:49:25 10° NNW daylight
06 Jul - 13:45:37 10° NNW 13:49:09 18° NNE 13:52:21 10° ENE daylight
06 Jul - 16:10:13 10° W 16:14:15 34° SSW 16:19:08 10° SSE daylight
06 Jul - 23:35:08 10° SSW 23:49:37 30° SSE 00:11:06 10° E visible
07 Jul - 02:01:17 10° SW 02:24:13 73° SE 02:49:21 10° ENE visible
07 Jul - 04:33:09 10° WSW 04:58:42 54° NW 05:18:06 10° NE visible
07 Jul - 07:17:56 10° WNW 07:32:47 19° NNW 07:42:22 10° NNE daylight
07 Jul - 14:59:01 10° NW 15:03:40 88° NE 15:08:18 10° SE daylight
07 Jul - 17:29:19 10° SSW 17:29:48 10° SSW 17:30:05 10° SSW daylight
07 Jul - 22:25:01 10° SSW 22:34:27 19° SSE 22:49:04 10° ESE visible
08 Jul - 00:49:15 10° SW 01:08:36 53° SE 01:34:05 10° ENE visible
08 Jul - 03:17:57 10° WSW 03:43:06 74° NW 04:06:02 10° NE visible
08 Jul - 05:56:01 10° W 06:17:39 31° NNW 06:32:14 10° NNE daylight
08 Jul - 13:48:14 10° NNW 13:53:03 33° NNE 13:57:03 10° E daylight
08 Jul - 16:14:52 10° WSW 16:18:08 19° SSW 16:21:48 10° SSE daylight
08 Jul - 21:18:15 10° SSE 21:19:41 10° SSE 21:22:26 10° SSE visible
08 Jul - 23:38:10 10° SSW 23:53:26 37° SE 00:16:24 10° E visible
09 Jul - 02:04:30 10° SW 02:27:20 85° SE 02:52:48 10° NE visible
09 Jul - 04:37:28 10° WSW 05:02:08 45° NW 05:21:07 10° NNE visible
09 Jul - 07:24:57 10° WNW 07:37:20 16° NNW 07:45:33 10° N daylight
09 Jul - 12:37:42 10° NNW 12:41:43 17° NNE 12:45:02 10° ENE daylight
09 Jul - 15:02:48 10° WNW 15:07:19 48° SW 15:11:45 10° SE daylight
09 Jul - 22:28:02 10° SSW 22:38:42 23° SSE 22:55:40 10° E visible
10 Jul - 00:52:20 10° SW 01:11:51 64° SE 01:38:01 10° ENE visible
10 Jul - 03:21:40 10° WSW 03:46:18 63° NW 04:09:07 10° NE visible
10 Jul - 06:01:53 10° W 06:21:46 26° NNW 06:35:20 10° NNE daylight
10 Jul - 11:27:28 10° N 11:29:31 11° NNE 11:31:33 10° NNE daylight
10 Jul - 13:51:20 10° NW 13:56:50 61° NE 14:01:10 10° ESE daylight
10 Jul - 16:20:59 10° SW 16:22:08 11° SSW 16:23:07 10° SSW daylight
10 Jul - 21:19:49 10° S 21:24:19 12° SSE 21:31:18 10° SE visible
10 Jul - 23:41:11 10° SSW 23:56:57 44° SE 00:21:09 10° ENE visible
11 Jul - 02:07:52 10° SW 02:30:25 83° NW 02:56:02 10° NE visible
11 Jul - 04:42:15 10° W 05:05:50 38° NNW 05:24:08 10° NNE visible
11 Jul - 07:31:58 10° NW 07:42:09 14° NNW 07:49:11 10° N daylight
11 Jul - 12:40:01 10° NNW 12:45:49 28° NNE 12:50:00 10° E daylight
11 Jul - 15:07:03 10° W 15:11:00 26° SW 15:14:46 10° SSE daylight
11 Jul - 22:30:58 10° SSW 22:42:37 28° SE 23:01:38 10° E visible
12 Jul - 00:55:31 10° SW 01:14:58 75° SE 01:41:36 10° ENE visible
12 Jul - 03:25:42 10° WSW 03:49:41 53° NNW 04:12:05 10° NE visible
12 Jul - 06:08:16 10° WNW 06:26:14 22° NNW 06:38:38 10° NNE daylight
12 Jul - 09:00:35 10° N 09:02:20 10° N 09:03:50 10° N daylight
12 Jul - 11:28:32 10° NNW 11:33:57 18° NNE 11:38:03 10° ENE daylight
12 Jul - 13:54:47 10° WNW 14:00:30 73° SW 14:04:53 10° SE daylight
12 Jul - 21:22:10 10° S 21:28:41 16° SSE 21:38:58 10° ESE night (unlit)
12 Jul - 23:44:16 10° SW 00:00:14 54° SE 00:25:23 10° ENE visible
13 Jul - 02:11:27 10° WSW 02:33:38 71° NW 02:59:06 10° NE visible
13 Jul - 04:47:32 10° W 05:09:52 32° NNW 05:27:13 10° NNE visible
13 Jul - 07:38:18 10° NW 07:47:09 14° N 07:53:35 10° NNE daylight
13 Jul - 10:16:18 10° NNW 10:21:09 13° N 10:25:08 10° NE daylight
13 Jul - 12:42:49 10° NW 12:49:47 47° NNE 12:54:21 10° ESE daylight
13 Jul - 15:12:05 10° WSW 15:14:44 14° SW 15:17:09 10° S daylight
13 Jul - 22:33:56 10° SSW 22:46:15 35° SE 23:06:56 10° E visible
